SB KEPS @ AMSAT $ORB26072.1 2Line Orbital Elements 26072.AMSAT QST de W1STR AMSAT Orbital Elements for Amateur Satellites in TLE Format From Orbital Analysis Office New England Sci-Tech STEM Education Center Natick MA March 13, 2026 To all radio amateurs These element sets describe the orbits of various satellites in use by the amateur radio community. For details see: www.amsat.org/keplerian-elements-formats/ A daily update of element sets is available at: www.amsat.org/tle/daily-bulletin.txt or without bulletin text: www.amsat.org/tle/dailytle.txt AO-07 1 07530U 74089B 26071.60033231 -.00000026 00000-0 12684-3 0 9990 2 07530 101.9967 83.8215 0011953 316.4913 162.2549 12.53696384348419 UO-11 1 14781U 84021B 26071.82885625 .00001772 00000-0 18702-3 0 9994 2 14781 97.7946 38.5566 0008619 134.6539 225.5383 14.90518657242779 AO-27 1 22825U 93061C 26071.71380983 .00000133 00000-0 67474-4 0 9992 2 22825 98.6976 139.1260 0008809 30.7871 329.3826 14.30914229693207 FO-29 1 24278U 96046B 26071.60397799 .00000008 00000-0 45667-4 0 9994 2 24278 98.5377 293.6293 0349702 347.2088 12.0349 13.53268870460108 GO-32 1 25397U 98043D 26071.54984197 .00000125 00000-0 73993-4 0 9996 2 25397 99.0029 61.8925 0002134 115.0247 245.1152 14.24407055437576 ISS 1 25544U 98067A 26071.80448780 .00009714 00000-0 18665-3 0 9995 2 25544 51.6325 56.9556 0007970 185.8192 174.2705 15.48609576556819 NO-44 1 26931U 01043C 26071.63164662 .00000164 00000-0 92253-4 0 9995 2 26931 67.0501 134.0045 0007010 265.0968 94.9334 14.31913920276621 SO-50 1 27607U 02058C 26071.58495828 .00002213 00000-0 27794-3 0 9992 2 27607 64.5526 67.8178 0075292 280.1855 79.0765 14.82797589250138 CO-55 1 27844U 03031E 26071.58462092 .00000437 00000-0 20838-3 0 9992 2 27844 98.6778 81.3475 0010728 104.9211 255.3157 14.24269020177920 RS-22 1 27939U 03042A 26071.85365451 .00001590 00000-0 25417-3 0 9999 2 27939 98.3446 253.5027 0010651 209.3538 257.7219 14.73265397201365 CO-65 1 32785U 08021C 26071.89771396 .00007886 00000-0 51033-3 0 9996 2 32785 97.8202 51.4268 0009246 7.8229 352.3141 15.08422231970676 CO-66 1 32791U 08021J 26071.60401122 .00022620 00000-0 79898-3 0 9991 2 32791 97.7518 65.1556 0000957 346.4462 13.6752 15.29223276972516 RS-30 1 32953U 08025A 26071.84651597 .00000088 00000-0 56389-3 0 9998 2 32953 82.5007 55.3583 0019638 158.3610 201.8304 12.43176328807725 SRMSAT 1 37841U 11058D 26071.88014721 .00000480 00000-0 11685-3 0 9991 2 37841 19.9720 282.3949 0011727 224.2053 250.8798 14.11549135744194 ZACUBE-1 1 39417U 13066B 26071.46451722 .00004995 00000-0 39525-3 0 9991 2 39417 97.8162 33.3027 0042859 210.7358 149.1354 15.00356925666226 Delfi-N3xt 1 39428U 13066N 26071.76196142 .00006755 00000-0 60773-3 0 9993 2 39428 97.8336 352.2618 0076503 166.2323 194.1007 14.93720301660223 GOMX-1 1 39430U 13066Q 26071.82163227 .00002159 00000-0 33043-3 0 9995 2 39430 97.6570 278.3316 0130093 27.5168 333.2847 14.69112316655763 LO-74 1 39440U 13066AA 26071.84762697 .00006457 00000-0 60655-3 0 9998 2 39440 97.8805 20.5253 0058254 348.4702 11.5178 14.92998447662619 AO-73 1 39444U 13066AE 26071.29535176 .00008749 00000-0 56408-3 0 9998 2 39444 97.8189 40.8783 0037634 169.9501 190.2488 15.07963577665056 DTUSAT-2 1 40030U 14033W 26071.50212492 .00008952 00000-0 50229-3 0 9994 2 40030 98.0854 63.2081 0007409 190.8975 169.2095 15.13593853638059 LILACSAT-2 1 40908U 15049K 26071.81140157 .00019513 00000-0 37259-3 0 9991 2 40908 97.4807 105.1447 0005901 231.0249 129.0476 15.48152224580822 Horyu-4 1 41340U 16012D 26070.63764773 .00098481 00000-0 10189-2 0 9991 2 41340 30.9918 54.3852 0003455 170.9196 189.1520 15.63295409555411 Lapan A3 1 41603U 16040E 26071.83286404 .00004863 00000-0 15753-3 0 9991 2 41603 97.1486 71.2002 0010647 12.2585 347.8914 15.32418234540057 CAS-2T 1 41847U 16066G 26071.75484931 .00001557 00000-0 22572-3 0 9999 2 41847 98.3881 148.5710 0343561 62.2214 301.3364 14.44480000490871 TechnoSat 1 42829U 17042E 26071.68758967 .00003923 00000-0 28467-3 0 9998 2 42829 97.4149 233.1237 0019308 66.0031 294.3214 15.04311616472195 AO-91 1 43017U 17073E 26071.57536950 .00014489 00000-0 65446-3 0 9993 2 43017 97.4859 300.8129 0154357 301.9271 56.7024 15.10950627450795 S-Net D 1 43186U 18014G 26071.71140146 .00006116 00000-0 32463-3 0 9991 2 43186 97.5429 337.1376 0008531 5.6012 354.5314 15.15672412444147 S-Net B 1 43187U 18014H 26071.72101139 .00006094 00000-0 32370-3 0 9994 2 43187 97.5437 337.1302 0009029 0.6885 359.4358 15.15645039444149 S-Net A 1 43188U 18014J 26071.71073262 .00006218 00000-0 32987-3 0 9991 2 43188 97.5446 337.3115 0008895 1.1836 358.9415 15.15679689444142 S-Net C 1 43189U 18014K 26071.72436994 .00006567 00000-0 34851-3 0 9997 2 43189 97.5465 337.3846 0010005 352.4388 7.6691 15.15639147442692 Ten-Koh 1 43677U 18084G 26071.77203177 .00003090 00000-0 23751-3 0 9991 2 43677 98.0798 260.0883 0011941 83.7588 276.4995 15.02483807401681 PO-101 1 43678U 18084H 26071.85757525 .00004046 00000-0 33024-3 0 9998 2 43678 98.1043 264.0241 0012142 117.4066 242.8393 14.99982133401778 QO-100 1 43700U 18090A 26071.79085058 .00000144 00000-0 00000+0 0 9998 2 43700 0.0173 145.4269 0001102 201.7102 133.8009 1.00271326 26717 MinXSS-2 1 43758U 18099A 26071.76951075 .00032882 00000-0 80798-3 0 9998 2 43758 97.4622 145.6631 0007694 246.7761 113.2675 15.40561796399251 AO-95 1 43770U 18099N 26071.72824332 .00012969 00000-0 52952-3 0 9998 2 43770 97.4509 132.4339 0008110 335.2955 24.7893 15.24502263398513 SNUSat 2 1 43782U 18099AA 26071.69465602 .00010005 00000-0 46379-3 0 9993 2 43782 97.4194 126.6119 0009000 272.5623 87.4582 15.20235345398365 SnugLite 1 43784U 18099AC 26071.69155802 .00013789 00000-0 55616-3 0 9999 2 43784 97.4001 127.0177 0001416 256.1229 103.9852 15.24926402398602 ITASat 1 1 43786U 18099AE 26071.67550692 .00008290 00000-0 41330-3 0 9994 2 43786 97.4162 125.1435 0011941 335.6158 24.4509 15.17731810398263 EAGLET 1 1 43790U 18099AJ 26071.66459385 .00004863 00000-0 28552-3 0 9998 2 43790 97.4369 123.8827 0010135 326.4039 33.6548 15.12142265397749 ESEO 1 43792U 18099AL 26071.64935222 .00002410 00000-0 17884-3 0 9999 2 43792 97.4115 113.1299 0010687 306.9980 53.0268 15.03930972397290 JO-97 1 43803U 18099AX 26071.69409322 .00018439 00000-0 62819-3 0 9990 2 43803 97.4251 134.3706 0004884 243.5412 116.5328 15.30427657398856 Suomi 100 1 43804U 18099AY 26071.69897642 .00014189 00000-0 55204-3 0 9995 2 43804 97.4315 132.5594 0009010 258.1624 101.8604 15.26090313398692 ISAT 1 43879U 18111D 26071.75541975 .00060893 00000-0 10246-2 0 9993 2 43879 97.5899 0.6715 0002219 310.1451 49.9606 15.51529404396152 UWE-4 1 43880U 18111E 26071.72879685 .00032422 00000-0 80616-3 0 9990 2 43880 97.5847 356.1269 0006906 327.7228 32.3594 15.40211697395907 Sparrow 1 43881U 18111F 26071.76477892 .00074740 00000-0 10935-2 0 9994 2 43881 97.6101 5.0937 0003431 35.1165 325.0314 15.55347642396307 Prox-1 1 44339U 19036A 26071.58379256 .00014586 00000-0 15150-2 0 9991 2 44339 23.9963 38.3566 0006079 356.3501 3.6953 14.88142623359050 Taurus 1 1 44530U 19059C 26071.82348942 .00011114 00000-0 18222-2 0 9991 2 44530 98.6309 230.8049 0008483 247.7494 112.2811 14.70877185344475 TO-108 1 44881U 19093C 26071.84973609 .00000980 00000-0 11701-3 0 9999 2 44881 97.7604 146.4127 0014784 48.2087 312.0389 14.86350160337102 RS-44 1 44909U 19096E 26071.84349184 .00000041 00000-0 11949-3 0 9990 2 44909 82.5207 43.7179 0217804 9.9605 350.5709 12.79747531290022 SALSAT 1 46495U 20068K 26071.55405918 .00009897 00000-0 36214-3 0 9999 2 46495 97.8863 68.8510 0008110 284.2455 75.7882 15.28248963300591 CSS (TIANHE-1) 1 48274U 21035A 26071.65904515 .00026654 00000-0 31305-3 0 9995 2 48274 41.4661 190.0925 0006713 290.2953 69.7164 15.60827652278071 CUTE 1 49263U 21088D 26071.74482362 .00051439 00000-0 48194-3 0 9996 2 49263 97.4223 164.1182 0003184 300.1336 59.9609 15.67071157247357 TeikyoSat 4 1 49396U 21102B 26071.59278279 .00002067 00000-0 13402-3 0 9990 2 49396 97.3792 104.7999 0010426 264.9162 95.0877 15.09132585238156 Z-Sat 1 49399U 21102E 26071.88386644 .00004375 00000-0 22117-3 0 9998 2 49399 97.3462 110.1233 0015669 218.5536 141.4580 15.17458073238833 KOSEN 1 1 49402U 21102H 26071.69267066 .00008959 00000-0 35675-3 0 9993 2 49402 97.3333 115.7576 0014135 181.9262 178.1925 15.25377967239306 HO-113 1 50466U 21131B 26071.83637487 .00000684 00000-0 22544-3 0 9999 2 50466 98.4951 164.7731 0004772 41.6354 318.5197 14.41256117221237 SNUGLITE 2 1 52899U 22065F 26071.81532122 .00001464 00000-0 28767-3 0 9996 2 52899 98.2037 216.9077 0006747 334.2889 25.7977 14.64140028196897 UmKA 1 (RS40S) 1 57172U 23091G 26071.79868546 .00007228 00000-0 34127-3 0 9995 2 57172 97.5175 130.8923 0014689 96.3593 263.9315 15.19648642149365 CubeBel-2 (EU11S) 1 57175U 23091K 26071.85243869 .00013977 00000-0 53206-3 0 9997 2 57175 97.5169 134.3274 0011807 96.8291 263.4291 15.26794133149596 RS-38S 1 57189U 23091Z 26071.83150090 .00018627 00000-0 58767-3 0 9997 2 57189 97.5192 139.5716 0008618 62.8329 297.3790 15.32880205149915 SONATE-2 1 59112U 24043Q 26071.81970835 .00040320 00000-0 67775-3 0 9992 2 59112 97.5393 216.8998 0007908 193.1783 166.9263 15.51620954112910 GRBBeta 1 60237U 24128C 26071.76177803 .00006062 00000-0 41798-3 0 9996 2 60237 61.9902 194.3740 0051226 114.6400 246.0041 15.05837047 91745 Curium One 1 60242U 24128H 26071.86368048 .00010997 00000-0 64869-3 0 9992 2 60242 61.9790 186.5309 0050736 111.2674 249.3850 15.10929182 91899 ROBUSTA-3A 1 60243U 24128J 26071.77669334 .00010824 00000-0 65198-3 0 9990 2 60243 61.9865 188.7946 0051538 108.8394 251.8300 15.10151219 91858 CatSat 1 60246U 24125J 26071.65987009 .00046036 00000-0 83578-3 0 9995 2 60246 97.2210 283.5557 0027762 176.8908 183.2521 15.49004515 92400 HYPERVIEW-1G (RS66S) 1 61772U 24199AP 26071.83910867 .00072914 00000-0 95103-3 0 9990 2 61772 97.3084 307.9938 0006238 268.1161 91.9381 15.58442903119596 AO-123 1 61781U 24199AY 26071.87736392 .00009964 00000-0 30320-3 0 9998 2 61781 97.3155 301.4335 0012612 297.6505 62.3457 15.34133866119154 JINJUSat 1B 1 63210U 25052A 26071.67159861 .00019529 00000-0 66725-3 0 9990 2 63210 97.4115 328.4626 0005433 76.5028 283.6818 15.30319741 55320 NUSHSAT 1 1 63211U 25052B 26071.65159157 .00022759 00000-0 73628-3 0 9996 2 63211 97.4082 328.7301 0005546 74.7656 285.4199 15.32052661 55340 TEVEL2-4 1 63213U 25052D 26071.70069661 .00021009 00000-0 70127-3 0 9992 2 63213 97.4016 328.1232 0004792 87.6329 272.5460 15.31063663 55338 TEVEL2-5 1 63214U 25052E 26071.64652685 .00020612 00000-0 69080-3 0 9995 2 63214 97.4014 328.0409 0004756 90.1067 270.0719 15.30936720 55321 TEVEL2-6 1 63215U 25052F 26071.65643196 .00021722 00000-0 72864-3 0 9991 2 63215 97.4016 328.0367 0004859 90.3008 269.8790 15.30896934 55325 TEVEL2-1 1 63217U 25052H 26071.65549193 .00020565 00000-0 69915-3 0 9992 2 63217 97.3990 327.7649 0004828 99.2965 260.8822 15.30473039 55315 TEVEL2-3 1 63218U 25052J 26071.65300071 .00020987 00000-0 71257-3 0 9993 2 63218 97.3991 327.7743 0004909 99.3774 260.8022 15.30510578 55313 TEVEL2-2 1 63219U 25052K 26071.65614720 .00020729 00000-0 70464-3 0 9996 2 63219 97.3989 327.7668 0004811 100.3144 259.8639 15.30475266 55319 TEVEL2-9 1 63237U 25052AD 26071.64787713 .00019147 00000-0 68604-3 0 9993 2 63237 97.4057 327.3223 0008172 115.8360 244.3723 15.28754273 55266 TEVEL2-7 1 63238U 25052AE 26071.67260300 .00018080 00000-0 65236-3 0 9998 2 63238 97.4056 327.2987 0008301 116.0056 244.2039 15.28535397 55264 TEVEL2-8 1 63239U 25052AF 26071.67966764 .00018175 00000-0 65622-3 0 9990 2 63239 97.4055 327.2862 0008275 116.8914 243.3173 15.28512652 55265 HYDRA-W 1 63490U 25052BL 26071.64832816 .00215846 00000-0 21942-2 0 9996 2 63490 97.3931 332.9453 0009173 103.1709 257.0574 15.64434536 55658 HADES-ICM (SO-125) 1 63492U 25052BN 26071.65340648 .00144463 00000-0 19096-2 0 9999 2 63492 97.3940 332.2098 0009178 105.5033 254.7237 15.57805361 55604 Ten-Koh2 1 66174U 25241A 26071.83492074 .00009419 00000-0 41005-3 0 9997 2 66174 51.6355 57.8859 0006085 183.2990 176.7948 15.22866996 21430 SPIRONE 1 66657U 25274H 26071.76687657 .00003270 00000-0 31886-3 0 9999 2 66657 97.7438 2.4929 0011755 343.6979 16.3861 14.93096073 15830 K-HERO 1 66660U 25274L 26071.73239371 .00002955 00000-0 28538-3 0 9995 2 66660 97.7439 2.5467 0013696 346.5021 13.5831 14.93545728 15831 SNUGLITE-III DURI 1 66661U 25274M 26071.72407115 .00002656 00000-0 25647-3 0 9994 2 66661 97.7437 2.5539 0014402 346.9571 13.1275 14.93631194 15831 SilverSat 1 66909U 98067XV 26071.18756588 .00230471 00000-0 15879-2 0 9993 2 66909 51.6249 52.0679 0005428 93.6368 266.5252 15.73352402 15581 SAKHACUBE-CHOLBON 1 67290U 25313AU 26071.77098457 .00011537 00000-0 49311-3 0 9999 2 67290 97.4001 148.1183 0008858 342.5144 17.5786 15.22976758 11294 RS95S (QMR-KWT-2) 1 67291U 25313AV 26071.75777954 .00016676 00000-0 69819-3 0 9998 2 67291 97.4000 148.1350 0008490 340.9231 19.1687 15.23594037 11296 IO-86 1 40931U 25360.30710720 .00000000 00000-0 12800-3 0 00 2 40931 6.0006 332.5373 0012733 338.8432 8.1437 14.79075515 01 /EX